Station PPXC1 - 9414847 - Point Potrero, Richmond, CA Image indicating link to RSS feed of recent meteorological observations for station PPXC1


Conditions at PPXC1 as of
(2:00 am PDT)
0900 GMT on 07/23/2024:
     

Click on the graph icon in the table below to see a time series plot of the last five days of that observation.

5-day plot - Wind Direction Wind Direction (WDIR): S ( 180 deg true )
5-day plot - Wind Speed Wind Speed (WSPD): 15.0 kts
5-day plot - Wind Gust Wind Gust (GST): 15.9 kts
5-day plot - Atmospheric Pressure Atmospheric Pressure (PRES):29.84 in
5-day plot - Pressure Tendency Pressure Tendency (PTDY):+0.00 in ( Steady )
5-day plot - Air Temperature Air Temperature (ATMP): 56.8 °F
5-day plot - Wind Speed at 10 Meters Wind Speed at 10 meters (WSPD10M): 15.5 kts
5-day plot - Wind Speed at 20 Meters Wind Speed at 20 meters (WSPD20M): 15.5 kts
5-day plot -  Wind Speed, Wind Gust and Atmospheric Pressure Combined plot of Wind Speed, Gust, and Air Pressure
NOS Water Level Observation Network Water Level
Previous observations
TIME
(PDT)
5-day plot - Wind Direction
WDIR
 
5-day plot - Wind Speed
WSPD
kts
5-day plot - Wind Gust
GST
kts
5-day plot - Wave Height
WVHT
ft
5-day plot - Dominant Wave Period
DPD
sec
5-day plot - Average Wave Period
APD
sec
5-day plot - Mean Wave Direction
MWD
 
5-day plot - Atmospheric Pressure
PRES
in
5-day plot - Pressure Tendency
PTDY
in
5-day plot - Air Temperature
ATMP
°F
5-day plot - Water Temperature
WTMP
°F
5-day plot - Dew Point
DEWP
°F
5-day plot - Salinity
SAL
psu
5-day plot - Visibility
VIS
nmi
5-day plot - Tide (above MLLW)
TIDE
ft
2024-07-23 01:54 am S 14.0 15.9----29.84- 57.0-----
2024-07-23 01:48 am S 13.0 15.9----29.84- 56.8-----
2024-07-23 01:42 am S 14.0 15.9----29.84- 56.8-----
2024-07-23 01:36 am S 14.0 15.9----29.84- 56.7-----
2024-07-23 01:30 am S 14.0 15.9----29.84- 56.7-----
2024-07-23 01:24 am S 13.0 17.1----29.84- 56.8-----
2024-07-23 01:18 am S 15.0 17.1----29.83- 56.3-----
2024-07-23 01:12 am S 15.9 18.1----29.83- 56.3-----
2024-07-23 01:06 am S 15.0 18.1----29.83- 56.5-----
2024-07-23 01:00 am S 14.0 17.1----29.83+0.00 56.3-----
2024-07-23 12:54 am S 13.0 15.9----29.83- 56.5-----
2024-07-23 12:48 amSSW 14.0 15.9----29.83- 56.3-----
2024-07-23 12:42 am S 12.0 18.1----29.84- 56.5-----
2024-07-23 12:36 am S 14.0 15.9----29.83- 56.5-----
2024-07-23 12:30 am S 14.0 15.9----29.83- 56.3-----
2024-07-23 12:24 amSSW 13.0 17.1----29.84- 56.5-----
2024-07-23 12:18 amSSW 13.0 17.1----29.83- 56.3-----
2024-07-23 12:12 amSSW 14.0 17.1----29.83- 56.7-----
2024-07-23 12:06 am S 15.0 17.1----29.83- 56.5-----
2024-07-23 12:00 amSSW 12.0 17.1----29.84+0.02 56.8-----
2024-07-22 11:54 pmSSW 14.0 19.0----29.83- 56.3-----
2024-07-22 11:48 pmSSW 15.9 19.0----29.83- 56.3-----
2024-07-22 11:42 pm S 14.0 18.1----29.84- 56.5-----
2024-07-22 11:36 pmSSW 14.0 19.0----29.83- 56.8-----
2024-07-22 11:30 pmSSW 15.0 18.1----29.83- 56.3-----
2024-07-22 11:24 pm S 17.1 20.0----29.83- 56.5-----
2024-07-22 11:18 pm S 18.1 20.0----29.83- 56.3-----
2024-07-22 11:12 pmSSW 15.0 19.0----29.83- 56.5-----
2024-07-22 11:06 pmSSW 14.0 17.1----29.83- 57.0-----
2024-07-22 11:00 pmSSW 13.0 18.1----29.83+0.01 57.0-----
2024-07-22 10:54 pmSSW 14.0 20.0----29.83- 56.8-----
2024-07-22 10:48 pmSSW 15.0 19.0----29.84- 57.6-----
2024-07-22 10:42 pmSSW 13.0 18.1----29.83- 57.2-----
2024-07-22 10:36 pmSSW 14.0 19.0----29.83- 57.4-----
2024-07-22 10:30 pm S 15.9 18.1----29.83- 56.8-----
2024-07-22 10:24 pmSSW 12.0 17.1----29.83- 57.6-----
2024-07-22 10:06 pmSSW 12.0 15.0----29.83- 58.1-----
2024-07-22 10:00 pmSSW 9.9 14.0----29.83+0.02 58.5-----
2024-07-22 09:54 pm SW 11.1 13.0----29.83- 59.5-----
2024-07-22 09:48 pmSSW 8.9 13.0----29.83- 59.5-----
2024-07-22 09:30 pmSSW 11.1 15.0----29.83- 58.8-----
2024-07-22 09:24 pm SW 13.0 17.1----29.83- 58.3-----
2024-07-22 09:18 pm SW 13.0 18.1----29.82- 58.3-----
2024-07-22 09:12 pm SW 14.0 18.1----29.82- 58.3-----
2024-07-22 09:06 pmSSW 13.0 19.0----29.82- 57.6-----
2024-07-22 09:00 pm SW 14.0 18.1----29.82+0.01 58.5-----
2024-07-22 08:54 pmSSW 14.0 18.1----29.82- 57.6-----
2024-07-22 08:48 pmSSW 12.0 15.9----29.82- 59.2-----
2024-07-22 08:42 pmSSW 14.0 17.1----29.82- 58.1-----
2024-07-22 08:30 pm S 14.0 17.1----29.82- 58.5-----
2024-07-22 08:24 pmSSW 8.9 13.0----29.82- 59.9-----
2024-07-22 08:18 pmSSW 11.1 15.0----29.81- 58.6-----
2024-07-22 08:12 pmSSW 11.1 15.0----29.81- 59.0-----
2024-07-22 08:06 pmSSW 13.0 15.9----29.82- 59.0-----
2024-07-22 08:00 pmSSW 12.0 15.0----29.82+0.00 59.5-----
2024-07-22 07:54 pmSSW 11.1 14.0----29.81- 60.6-----
2024-07-22 07:48 pmSSW 9.9 14.0----29.82- 60.4-----
2024-07-22 07:42 pmSSW 11.1 14.0----29.81- 61.5-----
2024-07-22 07:36 pm S 11.1 13.0----29.81- 61.3-----
2024-07-22 07:30 pmSSW 8.0 9.9----29.81- 62.2-----
2024-07-22 07:24 pmSSW 7.0 11.1----29.81- 62.1-----
2024-07-22 07:18 pm S 12.0 13.0----29.81- 60.6-----
2024-07-22 07:12 pmSSW 8.0 12.0----29.81- 62.2-----
2024-07-22 07:06 pm S 9.9 14.0----29.81- 61.7-----
2024-07-22 07:00 pmSSW 8.9 12.0----29.81- 62.1-----
2024-07-22 06:54 pmSSW 8.9 12.0----29.81- 62.1-----
2024-07-22 06:48 pm S 11.1 14.0----29.81- 61.5-----
2024-07-22 06:42 pmSSW 8.9 12.0----29.81- 62.8-----
2024-07-22 06:36 pm S 12.0 15.0----29.81- 61.7-----
2024-07-22 06:30 pm S 13.0 15.9----29.81- 61.9-----
2024-07-22 06:24 pm S 11.1 13.0----29.81- 62.8-----
2024-07-22 06:18 pm S 13.0 14.0----29.81- 62.1-----
2024-07-22 06:12 pm S 11.1 13.0----29.81- 64.6-----
2024-07-22 06:06 pmSSW 9.9 14.0----29.81- 64.2-----
2024-07-22 06:00 pm S 9.9 12.0----29.81-0.04 63.3-----
2024-07-22 05:54 pmSSW 9.9 14.0----29.81- 63.0-----
2024-07-22 05:48 pm S 12.0 13.0----29.81- 62.8-----
2024-07-22 05:42 pmSSW 9.9 13.0----29.81- 64.0-----
2024-07-22 05:36 pm S 11.1 13.0----29.81- 63.5-----
2024-07-22 05:30 pm S 11.1 13.0----29.81- 63.1-----
2024-07-22 05:24 pm S 11.1 12.0----29.82- 62.1-----
2024-07-22 05:18 pm S 8.9 12.0----29.82- 63.1-----
2024-07-22 05:12 pmSSW 9.9 13.0----29.82- 61.9-----
2024-07-22 05:06 pm S 12.0 14.0----29.82- 61.2-----
2024-07-22 05:00 pmSSW 9.9 14.0----29.82-0.04 62.4-----
2024-07-22 04:54 pmSSW 12.0 15.0----29.82- 61.2-----
2024-07-22 04:48 pm S 14.0 15.0----29.82-------
2024-07-22 04:42 pm S 14.0 17.1----29.82-------
2024-07-22 04:36 pm S 13.0 15.9----29.82-------
2024-07-22 04:30 pm S 17.1 20.0----29.83-------
2024-07-22 04:24 pm S 15.9 19.0----29.83-------
2024-07-22 04:18 pm S 17.1 20.0----29.83- 59.4-----
2024-07-22 04:12 pm S 15.9 18.1----29.83- 59.9-----
2024-07-22 04:06 pm S 15.9 20.0----29.83- 59.7-----
2024-07-22 03:48 pmSSW 13.0 17.1----29.84- 60.4-----
2024-07-22 03:42 pm S 15.9 19.0----29.84- 59.5-----
2024-07-22 03:36 pm S 15.9 18.1----29.84- 59.5-----
2024-07-22 03:30 pmSSW 15.0 19.0----29.84- 59.4-----
2024-07-22 03:24 pmSSW 15.0 19.0----29.84- 59.5-----
2024-07-22 03:18 pmSSW 15.0 19.0----29.84- 59.0-----
2024-07-22 03:12 pmSSW 15.9 20.0----29.84- 59.0-----
2024-07-22 03:06 pmSSW 15.9 20.0----29.85- 59.2-----
2024-07-22 03:00 pm S 15.0 18.1----29.85-0.03 59.2-----
2024-07-22 02:54 pm S 15.9 19.0----29.85- 59.5-----
2024-07-22 02:48 pm S 15.0 19.0----29.85- 59.9-----
2024-07-22 02:42 pmSSW 9.9 14.0----29.85- 61.7-----
2024-07-22 02:36 pmSSW 8.9 13.0----29.85- 61.7-----
2024-07-22 02:30 pm-------29.85-------
2024-07-22 02:24 pm-------29.86-------
2024-07-22 02:18 pmSSW 8.9 12.0----29.86- 61.2-----
2024-07-22 02:12 pmSSW 11.1 15.0----29.86- 60.6-----
2024-07-22 02:06 pmSSW 11.1 15.0----29.86- 60.1-----
2024-07-22 02:00 pmSSW 12.0 15.9----29.86-0.02------
2024-07-22 01:54 pmSSW 12.0 15.0----29.86-------
2024-07-22 01:48 pmSSW 12.0 15.0----29.86- 60.1-----
2024-07-22 01:42 pmSSW 11.1 15.0----29.87- 60.4-----
2024-07-22 01:36 pmSSW 11.1 14.0----29.87- 60.6-----
2024-07-22 01:30 pmSSW 12.0 15.0----29.87- 60.1-----
2024-07-22 01:24 pmSSW 9.9 14.0----29.87- 60.8-----
2024-07-22 01:18 pmSSW 9.9 14.0----29.88- 60.6-----
2024-07-22 01:12 pmSSW 9.9 15.0----29.88- 60.4-----
2024-07-22 01:06 pmSSW 11.1 15.9----29.88- 60.8-----
2024-07-22 01:00 pmSSW 9.9 15.0----29.88-0.01 60.8-----
2024-07-22 12:54 pmSSW 11.1 15.0----29.88- 60.4-----
2024-07-22 12:48 pmSSW 9.9 15.0----29.88-------
2024-07-22 12:42 pmSSW 9.9 15.0----29.88-------
2024-07-22 12:36 pmSSW 11.1 14.0----29.88-------
2024-07-22 12:30 pmSSW 11.1 15.0----29.88- 60.1-----
2024-07-22 12:24 pmSSW 11.1 15.0----29.88- 60.1-----
2024-07-22 12:18 pm SW 12.0 15.0----29.88- 59.9-----
2024-07-22 12:12 pm SW 12.0 15.9----29.88- 59.7-----
2024-07-22 12:06 pm SW 12.0 15.9----29.88- 59.7-----
2024-07-22 12:00 pmSSW 13.0 15.9----29.88-0.01 59.5-----
2024-07-22 11:54 am SW 13.0 15.9----29.88- 59.5-----
2024-07-22 11:48 am SW 12.0 17.1----29.88- 59.7-----
2024-07-22 11:42 amSSW 13.0 15.9----29.88- 59.5-----
2024-07-22 11:36 amSSW 12.0 15.0----29.88- 59.7-----
2024-07-22 11:30 amSSW 12.0 15.9----29.88- 59.5-----
2024-07-22 11:24 am SW 12.0 15.9----29.88- 59.5-----
2024-07-22 11:18 amSSW 13.0 15.9----29.88- 59.5-----
2024-07-22 11:12 am SW 11.1 14.0----29.89- 59.7-----
2024-07-22 11:06 amSSW 9.9 14.0----29.89- 59.9-----
2024-07-22 11:00 am SW 11.1 14.0----29.88+0.00 59.7-----
2024-07-22 10:48 amSSW 9.9 14.0----29.88- 59.4-----
2024-07-22 10:42 amSSW 9.9 13.0----29.88- 59.2-----
2024-07-22 10:36 am SW 9.9 14.0----29.89- 59.0-----
2024-07-22 10:30 am SW 11.1 14.0----29.89- 58.8-----
2024-07-22 10:24 am SW 11.1 13.0----29.89- 58.8-----
2024-07-22 10:18 am SW 9.9 14.0----29.89- 58.6-----
2024-07-22 10:12 am SW 11.1 13.0----29.89- 58.8-----
2024-07-22 10:06 am SW 11.1 14.0----29.89- 58.5-----
2024-07-22 10:00 am SW 12.0 14.0----29.89+0.02 58.5-----
2024-07-22 09:54 am SW 11.1 14.0----29.89- 58.5-----
2024-07-22 09:48 am SW 12.0 15.0----29.89- 58.1-----
2024-07-22 09:42 am SW 12.0 15.9----29.89- 58.3-----
2024-07-22 09:36 am SW 13.0 15.0----29.89- 58.1-----
2024-07-22 09:30 am SW 12.0 15.0----29.89- 57.9-----
2024-07-22 09:24 am SW 12.0 15.0----29.89- 57.9-----
2024-07-22 09:18 am SW 11.1 15.0----29.89- 57.9-----
2024-07-22 09:12 am SW 12.0 15.0----29.89- 57.7-----
2024-07-22 09:06 am SW 12.0 14.0----29.89- 57.7-----
2024-07-22 09:00 amSSW 8.9 14.0----29.89+0.03 58.1-----
2024-07-22 08:54 am SW 9.9 13.0----29.89- 58.1-----
2024-07-22 08:48 am SW 11.1 15.0----29.89- 57.6-----
2024-07-22 08:42 am SW 12.0 15.0----29.89- 57.4-----
2024-07-22 08:36 am SW 12.0 15.0----29.89- 57.2-----
2024-07-22 08:30 am SW 13.0 15.9----29.89- 57.2-----
2024-07-22 08:24 am SW 13.0 15.9----29.88- 57.2-----
2024-07-22 08:18 am SW 12.0 15.9----29.88- 57.6-----
2024-07-22 08:12 am SW 13.0 15.0----29.88- 57.4-----
2024-07-22 08:06 am SW 13.0 15.9----29.88- 57.0-----
2024-07-22 08:00 am SW 13.0 15.0----29.88+0.03 57.2-----
2024-07-22 07:54 am SW 13.0 15.0----29.88- 57.2-----
2024-07-22 07:48 am SW 13.0 15.9----29.88- 57.0-----
2024-07-22 07:42 am SW 14.0 15.9----29.88- 57.0-----
2024-07-22 07:36 am SW 13.0 15.9----29.88- 56.8-----
2024-07-22 07:30 am SW 13.0 15.9----29.88- 56.8-----
2024-07-22 07:24 am SW 12.0 15.0----29.87- 57.0-----
2024-07-22 07:18 am SW 13.0 15.0----29.87- 56.7-----
2024-07-22 07:12 am SW 12.0 15.0----29.87- 56.8-----
2024-07-22 07:06 am SW 13.0 15.0----29.87- 56.7-----
2024-07-22 07:00 am SW 12.0 14.0----29.87+0.02 57.0-----
2024-07-22 06:54 am SW 12.0 15.0----29.87- 56.8-----
2024-07-22 06:48 am SW 12.0 14.0----29.87- 56.8-----
2024-07-22 06:42 am SW 11.1 13.0----29.87- 57.2-----
2024-07-22 06:36 am SW 12.0 15.0----29.87- 56.7-----
2024-07-22 06:30 am SW 12.0 15.9----29.87- 56.8-----
2024-07-22 06:24 am SW 12.0 15.9----29.87- 56.8-----
2024-07-22 06:18 am SW 14.0 15.0----29.86- 56.5-----
2024-07-22 06:12 am SW 14.0 15.9----29.86- 56.7-----
2024-07-22 06:06 am SW 13.0 15.9----29.86- 56.5-----
2024-07-22 06:00 am SW 14.0 15.9----29.86+0.00 56.5-----
2024-07-22 05:54 am SW 13.0 15.9----29.86- 56.7-----
2024-07-22 05:48 am SW 14.0 17.1----29.86- 56.7-----
2024-07-22 05:42 am SW 14.0 15.9----29.86- 56.5-----
2024-07-22 05:36 am SW 13.0 15.9----29.86- 56.7-----
2024-07-22 05:30 am SW 14.0 17.1----29.86- 56.7-----
2024-07-22 05:24 am SW 13.0 15.0----29.86- 56.8-----
2024-07-22 05:18 am SW 13.0 15.0----29.86- 56.8-----
2024-07-22 05:12 am SW 13.0 15.0----29.86- 56.8-----
2024-07-22 05:06 am SW 14.0 15.9----29.86- 56.7-----
2024-07-22 05:00 am SW 12.0 15.0----29.86-0.01 57.2-----
2024-07-22 04:54 am SW 14.0 17.1----29.85- 56.8-----
2024-07-22 04:48 am SW 13.0 15.9----29.85- 56.7-----
2024-07-22 04:30 am SW 13.0 15.0----29.85- 56.8-----
2024-07-22 04:24 am SW 14.0 15.9----29.85- 56.7-----
2024-07-22 04:18 am SW 12.0 15.0----29.85- 57.2-----
2024-07-22 04:12 am SW 12.0 15.9----29.85- 57.2-----
2024-07-22 04:06 am SW 12.0 15.0----29.85- 57.0-----
2024-07-22 04:00 am SW 12.0 14.0----29.85-0.02 57.0-----
2024-07-22 03:54 am SW 11.1 14.0----29.86- 57.4-----
2024-07-22 03:48 am SW 9.9 13.0----29.86- 57.6-----
2024-07-22 03:42 am SW 9.9 14.0----29.86- 57.2-----
2024-07-22 03:36 amSSW 11.1 14.0----29.86- 57.2-----
2024-07-22 03:30 am SW 11.1 14.0----29.86- 56.8-----
2024-07-22 03:24 am SW 11.1 12.0----29.86- 57.0-----
2024-07-22 03:18 am SW 8.9 12.0----29.86- 57.0-----
2024-07-22 03:12 am SW 9.9 13.0----29.86- 57.0-----
2024-07-22 03:06 am SW 9.9 13.0----29.86- 57.0-----
2024-07-22 03:00 am SW 9.9 13.0----29.86-0.02 57.0-----
2024-07-22 02:54 amSSW 9.9 14.0----29.86- 56.8-----
2024-07-22 02:48 am SW 8.9 14.0----29.87- 57.2-----
2024-07-22 02:42 am SW 9.9 13.0----29.87- 57.0-----
2024-07-22 02:36 amSSW 12.0 14.0----29.87- 56.7-----
2024-07-22 02:30 amSSW 9.9 14.0----29.87- 56.7-----
2024-07-22 02:24 amSSW 11.1 14.0----29.87- 56.7-----
2024-07-22 02:18 amSSW 9.9 13.0----29.87- 57.0-----
2024-07-22 02:12 amSSW 9.9 14.0----29.87- 56.7-----
2024-07-22 02:06 amSSW 12.0 15.0----29.87- 56.5-----
2024-07-22 02:00 amSSW 11.1 15.0----29.87-0.02 56.7-----
2024-07-22 01:54 amSSW 12.0 15.9----29.87- 56.7-----